TimeEDT,TemperatureF,Dew PointF,Humidity,Sea Level PressureIn,VisibilityMPH,Wind Direction,Wind SpeedMPH,Gust SpeedMPH,PrecipitationIn,Events,Conditions,WindDirDegrees,DateUTC
12:54 AM,36.0,23.0,59,30.13,10.0,Calm,Calm,-,N/A,,Clear,0,2013-03-31 04:54:00
1:54 AM,35.1,21.0,57,30.13,10.0,Calm,Calm,-,N/A,,Clear,0,2013-03-31 05:54:00
2:54 AM,33.1,21.0,61,30.12,10.0,Calm,Calm,-,N/A,,Clear,0,2013-03-31 06:54:00
3:54 AM,32.0,21.0,64,30.12,10.0,Calm,Calm,-,N/A,,Clear,0,2013-03-31 07:54:00
4:54 AM,30.9,21.0,67,30.12,10.0,Calm,Calm,-,N/A,,Clear,0,2013-03-31 08:54:00
5:54 AM,30.0,21.9,72,30.13,10.0,Calm,Calm,-,N/A,,Clear,0,2013-03-31 09:54:00
6:54 AM,30.0,23.0,75,30.13,10.0,Calm,Calm,-,N/A,,Clear,0,2013-03-31 10:54:00
7:54 AM,34.0,26.1,73,30.14,10.0,Calm,Calm,-,N/A,,Clear,0,2013-03-31 11:54:00
8:54 AM,39.9,25.0,55,30.12,10.0,Calm,Calm,-,N/A,,Clear,0,2013-03-31 12:54:00
9:54 AM,48.0,24.1,39,30.11,10.0,Calm,Calm,-,N/A,,Clear,0,2013-03-31 13:54:00
10:54 AM,52.0,19.0,27,30.10,10.0,South,5.8,-,N/A,,Clear,190,2013-03-31 14:54:00
11:54 AM,57.0,19.0,23,30.08,10.0,Variable,3.5,-,N/A,,Clear,0,2013-03-31 15:54:00
12:54 PM,57.9,19.0,22,30.05,10.0,South,13.8,18.4,N/A,,Clear,180,2013-03-31 16:54:00
1:54 PM,61.0,19.0,20,30.01,10.0,WSW,13.8,19.6,N/A,,Clear,240,2013-03-31 17:54:00
2:54 PM,60.1,19.9,21,29.98,10.0,South,13.8,20.7,N/A,,Clear,170,2013-03-31 18:54:00
3:54 PM,60.1,19.9,21,29.96,10.0,SSW,16.1,23.0,N/A,,Clear,200,2013-03-31 19:54:00
4:54 PM,57.9,21.0,24,29.95,10.0,SSW,16.1,25.3,N/A,,Clear,210,2013-03-31 20:54:00
5:54 PM,57.0,19.0,23,29.95,10.0,SSW,15.0,24.2,N/A,,Clear,200,2013-03-31 21:54:00
6:54 PM,54.0,27.0,35,29.95,10.0,SSW,10.4,23.0,N/A,,Mostly Cloudy,200,2013-03-31 22:54:00
7:54 PM,53.1,30.9,43,29.94,10.0,SSW,10.4,19.6,N/A,,Overcast,200,2013-03-31 23:54:00
8:54 PM,50.0,35.6,58,29.93,10.0,South,10.4,17.3,N/A,Rain,Light Rain,180,2013-04-01 00:54:00
9:54 PM,50.0,36.0,59,29.89,10.0,Variable,6.9,-,0.00,,Overcast,0,2013-04-01 01:54:00
10:54 PM,48.2,35.6,62,29.83,10.0,ESE,6.9,-,N/A,,Overcast,120,2013-04-01 02:54:00
11:54 PM,46.0,37.0,71,29.79,10.0,ESE,8.1,-,0.01,Rain,Light Rain,110,2013-04-01 03:54:00